Regional Weather Roundup
Issued by NWS

Home | Current Version | Previous Version | Graphics & Text | Print | Product List | Glossary On
Versions: 1 2 3 4 5 6 7 8 9 10 11 12 13 14 15 16 17 18 19 20 21 22 23 24 25 26 27 28 29 30 31 32 33 34 35 36 37 38 39 40 41 42 43 44 45 46 47 48 49 50
000
ASUS45 KABQ 301010
RWRNM
NEW MEXICO REGIONAL WEATHER ROUNDUP
NATIONAL WEATHER SERVICE ALBUQUERQUE NM
400 AM MDT MON MAY 30 2016

NOTE: "FAIR" MEANS FEW OR NO CLOUDS BELOW 12,000 FEET AGL WITH NO
       SIGNIFICANT WEATHER OR OBSTRUCTIONS TO VISION.

      THIS PRODUCT IS RELEASED AS TWO VERSIONS.  ONE VERSION NEAR
      THE TOP OF THE HOUR CONTAINING PRELIMINARY DATA FROM ALBUQUERQUE
      AND OTHER STATIONS.  A FINAL VERSION WITH ADDITIONAL DATA IS
      ISSUED ABOUT 10 MINUTES AFTER THE HOUR.

NMZ501-503-504-510>518-301100-
NORTHWEST PLATEAU/NORTHCENTRAL MOUNTAINS

CITY           SKY/WX    TMP DP  RH WIND       PRES   REMARKS
FARMINGTON     FAIR      51  22  31 E5        30.07S
LOS ALAMOS     FAIR      51  42  71 S12       30.22F
SANTA FE       FAIR      54  44  69 SE12      30.17R
TAOS           FAIR      46  27  46 CALM      30.21R
ANGEL FIRE     FAIR      32  31  95 CALM      30.28F

$$
NMZ402-403-502-505>509-301100-
WESTCENTRAL MOUNTAINS/SOUTHWEST MOUNTAINS

CITY           SKY/WX    TMP DP  RH WIND       PRES   REMARKS
GALLUP         FAIR      41  19  41 NE6       30.16R
GRANTS         FAIR      45  12  26 W8        30.18S
SILVER CITY      N/A     59  23  25 N12       30.13S

$$
NMZ407-409-411-412-301100-
SOUTHERN DESERTS

CITY           SKY/WX    TMP DP  RH WIND       PRES   REMARKS
LORDSBURG      FAIR      61  30  31 CALM      30.05S
DEMING         MOCLDY    65  32  29 SW8       30.06S
LAS CRUCES     FAIR      62  33  33 W5        30.07S
HOLLOMAN AFB   FAIR      71  35  26 SE12      30.02S
ALAMOGORDO     FAIR      66  34  30 S9        30.05R
T OR C         FAIR      63  24  22 W8        30.06S

$$
NMZ519>523-301100-
CENTRAL VALLEYS/CENTRAL HIGHLANDS

CITY           SKY/WX    TMP DP  RH WIND       PRES   REMARKS
ALBUQUERQUE    MOCLDY    62  39  42 N6        30.09S
DOUBLE EAGLE   FAIR      53  39  59 N8        30.13R
MORIARTY ARPT  FAIR      41  38  89 NW6       30.20S
CLINES CORNERS CLOUDY    48  46  93 SE9       30.19F
BELEN          FAIR      56  17  22 S7        30.08S
SOCORRO        FAIR      60  26  26 CALM      30.06R

$$
NMZ524>526-539-540-301100-
SOUTHCENTRAL MOUNTAINS

CITY           SKY/WX    TMP DP  RH WIND       PRES   REMARKS
RUIDOSO          N/A     48  46  93 CALM      30.23F

$$
NMZ527>531-301100-
NORTHEAST HIGHLANDS/NORTHEAST PLAINS

CITY           SKY/WX    TMP DP  RH WIND       PRES   REMARKS
LAS VEGAS      CLOUDY    49  45  86 S9        30.20F
RATON          MOCLDY    45  42  89 CALM      30.17F
CLAYTON        FAIR      53  48  83 SW14      30.11S

$$
NMZ532>537-301100-
EASTCENTRAL PLAINS

CITY           SKY/WX    TMP DP  RH WIND       PRES   REMARKS
TUCUMCARI      FAIR      49  47  93 CALM      30.12F FOG
CANNON AFB     MOCLDY    51  51  99 NW5       30.14S
CLOVIS AIRPORT FAIR      48  45  87 N8        30.14R

$$
NMZ028-029-538-301100-
SOUTHEAST PLAINS

CITY           SKY/WX    TMP DP  RH WIND       PRES   REMARKS
ROSWELL        CLOUDY    63  51  65 S3        30.09F
ARTESIA        CLOUDY    61  59  94 SW7       30.10S
CARLSBAD       FAIR      60  55  83 W5        30.07F
HOBBS          FAIR      55  55 100 CALM      30.08R


$$




USA.gov is the U.S. government's official web portal to all federal, state and local government web resources and services.